Showing default

CALSPHERE 4(A), 1520

Orbit data source: Space-Track

CALSPHERE 4(A), 1520 is a payload satellite owned by NRL (US) in LEO that was launched on Fri, 13 Aug 1965 UTC via a THOR ABLESTAR launch vehicle from the Air Force Western Test Range (AFWTR). Payload-class satellites include a variety of spacecraft equipped with specific instruments for various scientific and technological missions. These include communications satellites like Starlink; space stations such as the ISS; scientific satellites like the Hubble; Earth observation satellites from companies like Planet Labs, Umbra, and HawkEye 360; GPS; miniature CubeSats for education and research; and military/defense satellites.

Loading next visibility...
Identifier
1520, 1965-065H
Orbit
LEO
Country
Flag of USUS
Related business
Manufacturer
NRL
Mission
Operational spacecraft
Bus & Motor
NRL 14", Unknown motor
Mass
4 kg wet, 4 kg dry
Launch date (UTC)
1965-08-13 (60 years ago)
Launch vehicle
THOR ABLESTAR
Launch site
Air Force Western Test Range (AFWTR)
Object type
Payload
Rocket body
Debris
Shape & HBR
Unknown
Radar Cross Section
Small (<0.1 m²)

Expand to show TLE details & history
Last TLE update: 22 hours ago

TLE from 22 hours ago
0 CALSPHERE 4(A)
1 01520U 65065H   25347.17230631  .00000156  00000-0  28406-3 0  9999
2 01520  89.9097 124.2369 0068221 268.3406 266.9124 13.36239789937861
Epoch: 2025-12-13T04:08Z
TLE epoch observation values (Epoch: 2025-12-13T04:08:07.265Z)
Latitude
5.44533°
Longitude
160.09467°
Altitude
1,128.817 km
Speed
7.287 km/s
True Right ascension
20h 16m 54s
True Declination
5° 24' 52"
Sunlit
Object was in daylight at epoch
Visualization orbit readout
Latitude
Unknown
Longitude
Unknown
Altitude
Unknown
Speed
Unknown
Apparent Right ascension
Unknown
Apparent Declination
Unknown
Sunlit
N/A
Visualization observer readout
Local Sidereal Time
00:14:01
Azimuth
Unknown
Elevation
Unknown
Doppler factor
Unknown
Orbital elements
Apogee altitude
1,171.545 km
Perigee altitude
1,069.233 km
Semi-major axis
7,498.526 km
Eccentricity
0.00682
Inclination
89.9097°
RAAN
124.2369°
Arg. of periapsis
268.3406°
True anomaly
266.13216°
Mean anomaly
266.9124°
Eccentric anomaly
266.52224°
Mean motion
3.34256 °/min
Orbital period
107.7 mins
BSTAR
0.00028406
Loading maneuver chart data...
Computing Atmospheric mass density...
Loading historical data...
Loading historical data...
Loading historical data...
Loading historical data...
Loading historical data...
Loading historical data...
Loading historical data...

Documentation

Showing up to 5 results
|